Find Starlink 30174

NORAD ID: 57609 Int'l Des: 2023-119 Owner: SPXS Country: US Constellation: starlink operational
LEOCIRCULAR

リアルタイム位置

3D地球を読み込み中...

Starlink 30174について

説明を読み込み中...

次回通過

Passes for default location (London). Set your location on the main map for personalized predictions.

高度履歴

Loading altitude history...

軌道要素

1 57609U 23119H 26125.01247525 .00000553 00000-0 29619-4 0 9999
2 57609 43.0026 123.1990 0001245 275.3748 84.6962 15.27573321151702
Epoch: May 5, 2026 • Age: 29 hours

現在のステータス

高度 486.7 km
速度 7.63 km/s
衛星直下点 41.74°N, 108.75°W
打ち上げ日 Aug 11, 2023
運用期間 2.7 years
タイプ internet

技術仕様

分類 Payload
質量 730.00 kg
乾燥質量 700.00 kg
総質量 730.00 kg
長さ 0.30 m
直径 4.10 m
スパン 29.00 m
形状 Box + pan
製造者 SPXS
バスタイプ Starlink V2M
フェーズステータス In Orbit
所有者/国 SPXS/US

Most Searched